Location: Caltech
(34.1382°N, 118.1253°W)
Time: 18:18:37
(UTC-07:00)

OAO 2 Rocket - Visible Passes

Search period start: 30 July 2014 00:00
Search period end: 09 August 2014 00:00
Orbit: 678 x 749 km, 35.0° (Epoch: 29 July)

Date Brightness Start Highest point End Pass type
(mag) Time Alt. Az. Time Alt. Az. Time Alt. Az.
30 Jul 3.5 20:32:20 10° W 20:37:30 80° N 20:42:46 10° E visible
30 Jul 3.3 22:17:14 10° W 22:22:17 73° SW 22:22:17 73° SW visible
31 Jul 3.3 21:20:12 10° W 21:25:23 87° S 21:28:07 29° ESE visible
31 Jul 5.3 23:05:13 10° W 23:07:07 21° W 23:07:07 21° W visible
01 Aug 3.4 20:23:10 10° W 20:28:18 84° N 20:33:33 10° E visible
01 Aug 3.7 22:08:04 10° W 22:12:58 53° SSW 22:12:58 53° SSW visible
02 Aug 3.4 21:11:00 10° W 21:16:07 68° SSW 21:18:50 28° ESE visible
02 Aug 5.6 22:56:25 10° W 22:57:49 16° WSW 22:57:49 16° WSW visible
03 Aug 3.4 20:13:58 10° W 20:19:05 82° SSW 20:24:18 10° ESE visible
03 Aug 4.3 21:59:03 10° W 22:03:42 34° SSW 22:03:43 34° SSW visible
04 Aug 3.9 21:01:52 10° W 21:06:46 47° SSW 21:09:39 23° SE visible
04 Aug 5.9 22:48:23 10° WSW 22:48:39 11° WSW 22:48:39 11° WSW visible
05 Aug 5.0 21:50:24 10° W 21:54:12 21° SSW 21:54:38 21° SSW visible
06 Aug 4.6 20:52:56 10° W 20:57:20 30° SSW 21:00:39 16° SSE visible
07 Aug 5.6 21:42:58 10° SW 21:44:38 12° SW 21:45:45 11° SSW visible
08 Aug 5.4 20:44:28 10° WSW 20:47:49 18° SSW 20:51:12 10° S visible
